Preview of NWS' New Version of Forecast
This preview is not operational and should not be used for support decisions.

Regional Weather Roundup (RWR)

Issued by Gray - Portland, ME (GYX)

                            
000
ASUS41 KGYX 210310
RWRGYX
WEATHER ROUNDUP FOR MAINE AND NEW HAMPSHIRE
NATIONAL WEATHER SERVICE GRAY ME
1100 PM EDT SAT APR 20 2019

MEZ002-005-006-010-012-015-018-020-021-024-026-027-029-210400-
MAINE
  
CITY           SKY/WX    TMP DP  RH WIND       PRES   REMARKS
PORTLAND       LGT RAIN  54  53  97 S14G23    29.98S FOG              
SANFORD        CLOUDY    60  59  96 S8        29.97F                  
BAR HARBOR     CLOUDY    53  53 100 S17       30.06S FOG              
WISCASSET      LGT RAIN  52  51  97 VRB6      30.03S FOG              
ROCKLAND       LGT RAIN  49  49 100 S8        30.04S VSB 1/2          
FRYEBURG       CLOUDY    59  59 100 CALM      29.96S                  
LEWISTONAUBURN   N/A     55  55 100 SW5       30.00R FOG              
AUGUSTA        LGT RAIN  54  54 100 S8        30.01S VSB 1/4          
WATERVILLE     LGT RAIN  47  47 100 CALM      29.98S VSB 3/4          
BANGOR         LGT RAIN  53  53 100 S14       30.02S VSB 1/2          
GREENVILLE       N/A     42  42 100 SE9       29.96S                  
MILLINOCKET    CLOUDY    41  39  93 VRB3      30.05F FOG              
HOULTON        CLOUDY    39  38  96 VRB5      30.07F FOG              
PRESQUE ISLE   LGT RAIN  39  39 100 SE5       30.08F FOG              
FRENCHVILLE    FOG       40  36  86 SE9       30.07R VSB 3/4          
CARIBOU        LGT RAIN  39  37  92 E3        30.07R FOG              
$$

NHZ002-005-008-009-011-012-014-210400-
NEW HAMPSHIRE
  
CITY           SKY/WX    TMP DP  RH WIND       PRES   REMARKS
PORTSMOUTH     FOG       56  56  99 SE9       29.94F VSB 3/4          
ROCHESTER      CLOUDY    61  61 100 SE9       29.95S FOG              
NASHUA         CLOUDY    65  63  93 SE9G16    29.94R                  
MANCHESTER     MOCLDY    66  61  84 S14       29.92R                  
CONCORD        CLOUDY    64  60  87 S9        29.93R                  
LACONIA        CLOUDY    65  60  84 VRB6      29.94S                  
PLYMOUTH       CLOUDY    64  59  85 E6        29.91S                  
BERLIN         CLOUDY    63  59  87 E12       29.90R                  
WHITEFIELD     FAIR      67  56  67 SE16      29.88S                  
JAFFREY        MOCLDY    63  54  72 S9G20     29.92R                  
KEENE          FAIR      64  56  75 S10       29.89R                  
LEBANON        FAIR      66  56  70 VRB3      29.86S                  
MT WASHINGTON  LGT RAIN  46  46 100 S43G64      N/A  VSB 0            
$$

VTZ005-007-008-210400-
VERMONT
  
CITY           SKY/WX    TMP DP  RH WIND       PRES   REMARKS
ST JOHNSBURY     N/A     67  58  72 MISG      29.82S                  
MONTPELIER     FAIR      63  57  81 S18G24    29.87R                  
BURLINGTON     FAIR      45  44  97 CALM      29.79S                  
$$

MAZ007-012-024-CTZ003-RIZ002-NYZ038-NYZ072-210400-
SOUTHERN NEW ENGLAND AND NY
  
CITY           SKY/WX    TMP DP  RH WIND       PRES   REMARKS
BOSTON         CLOUDY    64  60  87 S13       29.97R                  
WORCESTER      CLOUDY    59  56  89 S15       29.95R                  
NANTUCKET      HVY RAIN  53  52  96 SE14      30.04R FOG              
PROVIDENCE     CLOUDY    55  55 100 S6        29.96F FOG              
HARTFORD       CLOUDY    60  55  83 S10       29.92R                  
ALBANY         CLOUDY    62  49  62 S16       29.82S                  
NEW YORK CITY  MOCLDY    55  49  80 S10       29.86S                  
$$

ANZ081-ANZ082-ANZ150-NHZ014-MEZ023>029-210400-
COASTAL MARINE OBSERVATIONS
  
STATION/POSITION TIME  TEMP    WIND        PRES    WAVE
                       AIR SEA DIR/SP/G            HT/PER
                 (UTC) (F)     (DEG/KT/KT) (MB)    (FT/S)
ISLE OF SHOALS   0200   52     150/ 31/ 33 1013.2F
CASHES LEDGE BUO 0150   47 42              1017.1    7/ 6
$$

.............KEY..............
   WCI - WIND CHILL
   TC  - TEMPERATURE IN CELSIUS
   VSB - VISIBILITY IN MILES
   HX  - HEAT INDEX
   FAIR- INDICATES FEW OR NO CLOUDS BELOW 12,000 FT, WITH NO 
         SIGNIFICANT WEATHER AND/OR OBSTRUCTIONS TO VISIBILITY.